Time,TemperatureF,DewpointF,PressureIn,WindDirection,WindDirectionDegrees,WindSpeedMPH,WindSpeedGustMPH,Humidity,HourlyPrecipIn,Conditions,Clouds,dailyrainin,SoftwareType,DateUTC
2013-03-12 00:00:00,25.0,10.0,-100.00,West,268,4.0,6.0,52,-99.99,,,-99.99,,2013-03-12 06:00:00,
2013-03-12 00:32:00,25.0,10.0,-100.00,West,268,4.0,6.0,52,-99.99,,,-99.99,,2013-03-12 06:32:00,
2013-03-12 00:42:00,25.0,10.0,-100.00,West,268,4.0,6.0,52,-99.99,,,-99.99,,2013-03-12 06:42:00,
2013-03-12 00:52:00,25.0,10.0,-100.00,West,268,4.0,6.0,52,-99.99,,,-99.99,,2013-03-12 06:52:00,
2013-03-12 01:00:00,25.0,10.0,-100.00,SW,232,4.0,5.0,52,-99.99,,,-99.99,,2013-03-12 07:00:00,
2013-03-12 01:32:00,25.0,10.0,-100.00,SW,232,4.0,5.0,52,-99.99,,,-99.99,,2013-03-12 07:32:00,
2013-03-12 01:42:00,25.0,10.0,-100.00,SW,232,4.0,5.0,52,-99.99,,,-99.99,,2013-03-12 07:42:00,
2013-03-12 01:52:00,25.0,10.0,-100.00,SW,232,4.0,5.0,52,-99.99,,,-99.99,,2013-03-12 07:52:00,
2013-03-12 02:00:00,25.0,16.0,-100.00,WSW,240,5.0,7.0,68,-99.99,,,-99.99,,2013-03-12 08:00:00,
2013-03-12 02:33:00,25.0,16.0,-100.00,WSW,240,5.0,7.0,68,-99.99,,,-99.99,,2013-03-12 08:33:00,
2013-03-12 02:42:00,25.0,16.0,-100.00,WSW,240,5.0,7.0,68,-99.99,,,-99.99,,2013-03-12 08:42:00,
2013-03-12 02:52:00,25.0,16.0,-100.00,WSW,240,5.0,7.0,68,-99.99,,,-99.99,,2013-03-12 08:52:00,
2013-03-12 03:00:00,24.0,23.0,-100.00,West,263,7.0,9.0,93,-99.99,,,-99.99,,2013-03-12 09:00:00,
2013-03-12 03:33:00,24.0,23.0,-100.00,West,263,7.0,9.0,93,-99.99,,,-99.99,,2013-03-12 09:33:00,
2013-03-12 03:42:00,24.0,23.0,-100.00,West,263,7.0,9.0,93,-99.99,,,-99.99,,2013-03-12 09:42:00,
2013-03-12 03:52:00,24.0,23.0,-100.00,West,263,7.0,9.0,93,-99.99,,,-99.99,,2013-03-12 09:52:00,
2013-03-12 04:00:00,24.0,23.0,-100.00,WSW,241,6.0,10.0,92,-99.99,,,-99.99,,2013-03-12 10:00:00,
2013-03-12 04:33:00,24.0,23.0,-100.00,WSW,241,6.0,10.0,92,-99.99,,,-99.99,,2013-03-12 10:33:00,
2013-03-12 04:42:00,24.0,23.0,-100.00,WSW,241,6.0,10.0,92,-99.99,,,-99.99,,2013-03-12 10:42:00,
2013-03-12 04:52:00,24.0,23.0,-100.00,WSW,241,6.0,10.0,92,-99.99,,,-99.99,,2013-03-12 10:52:00,
2013-03-12 05:00:00,25.0,23.0,-100.00,WSW,237,6.0,9.0,92,-99.99,,,-99.99,,2013-03-12 11:00:00,
2013-03-12 05:32:00,25.0,23.0,-100.00,WSW,237,6.0,9.0,92,-99.99,,,-99.99,,2013-03-12 11:32:00,
2013-03-12 05:42:00,25.0,23.0,-100.00,WSW,237,6.0,9.0,92,-99.99,,,-99.99,,2013-03-12 11:42:00,
2013-03-12 05:52:00,25.0,23.0,-100.00,WSW,237,6.0,9.0,92,-99.99,,,-99.99,,2013-03-12 11:52:00,
2013-03-12 06:00:00,24.0,22.0,-100.00,SSW,197,4.0,8.0,91,-99.99,,,-99.99,,2013-03-12 12:00:00,
2013-03-12 06:32:00,24.0,22.0,-100.00,SSW,197,4.0,8.0,91,-99.99,,,-99.99,,2013-03-12 12:32:00,
2013-03-12 06:42:00,24.0,22.0,-100.00,SSW,197,4.0,8.0,91,-99.99,,,-99.99,,2013-03-12 12:42:00,
2013-03-12 06:52:00,24.0,22.0,-100.00,SSW,197,4.0,8.0,91,-99.99,,,-99.99,,2013-03-12 12:52:00,
2013-03-12 07:00:00,25.0,23.0,-100.00,SSW,193,4.0,6.0,92,-99.99,,,-99.99,,2013-03-12 13:00:00,
2013-03-12 07:33:00,25.0,23.0,-100.00,SSW,193,4.0,6.0,92,-99.99,,,-99.99,,2013-03-12 13:33:00,
2013-03-12 07:43:00,25.0,23.0,-100.00,SSW,193,4.0,6.0,92,-99.99,,,-99.99,,2013-03-12 13:43:00,
2013-03-12 07:52:00,25.0,23.0,-100.00,SSW,193,4.0,6.0,92,-99.99,,,-99.99,,2013-03-12 13:52:00,
2013-03-12 08:00:00,26.0,24.0,-100.00,SSW,206,4.0,6.0,93,-99.99,,,-99.99,,2013-03-12 14:00:00,
2013-03-12 08:33:00,26.0,24.0,-100.00,SSW,206,4.0,6.0,93,-99.99,,,-99.99,,2013-03-12 14:33:00,
2013-03-12 08:42:00,26.0,24.0,-100.00,SSW,206,4.0,6.0,93,-99.99,,,-99.99,,2013-03-12 14:42:00,
2013-03-12 08:53:00,26.0,24.0,-100.00,SSW,206,4.0,6.0,93,-99.99,,,-99.99,,2013-03-12 14:53:00,
2013-03-12 09:00:00,26.0,24.0,-100.00,SSW,201,4.0,6.0,92,-99.99,,,-99.99,,2013-03-12 15:00:00,
2013-03-12 09:32:00,26.0,24.0,-100.00,SSW,201,4.0,6.0,92,-99.99,,,-99.99,,2013-03-12 15:32:00,
2013-03-12 09:42:00,26.0,24.0,-100.00,SSW,201,4.0,6.0,92,-99.99,,,-99.99,,2013-03-12 15:42:00,
2013-03-12 09:53:00,26.0,24.0,-100.00,SSW,201,4.0,6.0,92,-99.99,,,-99.99,,2013-03-12 15:53:00,
2013-03-12 10:00:00,28.0,26.0,-100.00,SW,216,5.0,7.0,92,-99.99,,,-99.99,,2013-03-12 16:00:00,
2013-03-12 10:33:00,28.0,26.0,-100.00,SW,216,5.0,7.0,92,-99.99,,,-99.99,,2013-03-12 16:33:00,
2013-03-12 10:43:00,28.0,26.0,-100.00,SW,216,5.0,7.0,92,-99.99,,,-99.99,,2013-03-12 16:43:00,
2013-03-12 10:52:00,28.0,26.0,-100.00,SW,216,5.0,7.0,92,-99.99,,,-99.99,,2013-03-12 16:52:00,
2013-03-12 11:00:00,29.0,27.0,-100.00,SSW,200,5.0,10.0,92,-99.99,,,-99.99,,2013-03-12 17:00:00,
2013-03-12 11:34:00,29.0,27.0,-100.00,SSW,200,5.0,10.0,92,-99.99,,,-99.99,,2013-03-12 17:34:00,
2013-03-12 11:44:00,29.0,27.0,-100.00,SSW,200,5.0,10.0,92,-99.99,,,-99.99,,2013-03-12 17:44:00,
2013-03-12 11:53:00,29.0,27.0,-100.00,SSW,200,5.0,10.0,92,-99.99,,,-99.99,,2013-03-12 17:53:00,
2013-03-12 12:00:00,30.0,27.0,-100.00,SSW,210,6.0,9.0,91,-99.99,,,-99.99,,2013-03-12 18:00:00,
2013-03-12 12:33:00,30.0,27.0,-100.00,SSW,210,6.0,9.0,91,-99.99,,,-99.99,,2013-03-12 18:33:00,
2013-03-12 12:43:00,30.0,27.0,-100.00,SSW,210,6.0,9.0,91,-99.99,,,-99.99,,2013-03-12 18:43:00,
2013-03-12 12:53:00,30.0,27.0,-100.00,SSW,210,6.0,9.0,91,-99.99,,,-99.99,,2013-03-12 18:53:00,
2013-03-12 13:00:00,30.0,27.0,-100.00,SW,225,7.0,10.0,89,-99.99,,,-99.99,,2013-03-12 19:00:00,
2013-03-12 13:33:00,30.0,27.0,-100.00,SW,225,7.0,10.0,89,-99.99,,,-99.99,,2013-03-12 19:33:00,
2013-03-12 13:43:00,30.0,27.0,-100.00,SW,225,7.0,10.0,89,-99.99,,,-99.99,,2013-03-12 19:43:00,
2013-03-12 13:53:00,30.0,27.0,-100.00,SW,225,7.0,10.0,89,-99.99,,,-99.99,,2013-03-12 19:53:00,
2013-03-12 14:00:00,30.0,28.0,-100.00,SW,225,8.0,11.0,90,-99.99,,,-99.99,,2013-03-12 20:00:00,
2013-03-12 14:33:00,30.0,28.0,-100.00,SW,225,8.0,11.0,90,-99.99,,,-99.99,,2013-03-12 20:33:00,
2013-03-12 14:42:00,30.0,28.0,-100.00,SW,225,8.0,11.0,90,-99.99,,,-99.99,,2013-03-12 20:42:00,
2013-03-12 14:53:00,30.0,28.0,-100.00,SW,225,8.0,11.0,90,-99.99,,,-99.99,,2013-03-12 20:53:00,
2013-03-12 15:00:00,30.0,28.0,-100.00,SW,229,7.0,10.0,90,-99.99,,,-99.99,,2013-03-12 21:00:00,
2013-03-12 15:33:00,30.0,28.0,-100.00,SW,229,7.0,10.0,90,-99.99,,,-99.99,,2013-03-12 21:33:00,
2013-03-12 15:43:00,30.0,28.0,-100.00,SW,229,7.0,10.0,90,-99.99,,,-99.99,,2013-03-12 21:43:00,
2013-03-12 15:52:00,30.0,28.0,-100.00,SW,229,7.0,10.0,90,-99.99,,,-99.99,,2013-03-12 21:52:00,
2013-03-12 16:00:00,30.0,28.0,-100.00,SW,226,6.0,10.0,91,-99.99,,,-99.99,,2013-03-12 22:00:00,
2013-03-12 16:33:00,30.0,28.0,-100.00,SW,226,6.0,10.0,91,-99.99,,,-99.99,,2013-03-12 22:33:00,
2013-03-12 16:43:00,30.0,28.0,-100.00,SW,226,6.0,10.0,91,-99.99,,,-99.99,,2013-03-12 22:43:00,
2013-03-12 16:53:00,30.0,28.0,-100.00,SW,226,6.0,10.0,91,-99.99,,,-99.99,,2013-03-12 22:53:00,
2013-03-12 18:00:00,32.0,29.0,-100.00,South,187,5.0,8.0,90,-99.99,,,-99.99,,2013-03-13 00:00:00,
2013-03-12 18:33:00,32.0,29.0,-100.00,South,187,5.0,8.0,90,-99.99,,,-99.99,,2013-03-13 00:33:00,
2013-03-12 18:42:00,32.0,29.0,-100.00,South,187,5.0,8.0,90,-99.99,,,-99.99,,2013-03-13 00:42:00,
2013-03-12 18:53:00,32.0,29.0,-100.00,South,187,5.0,8.0,90,-99.99,,,-99.99,,2013-03-13 00:53:00,
2013-03-12 19:00:00,32.0,29.0,-100.00,SSW,198,5.0,8.0,91,-99.99,,,-99.99,,2013-03-13 01:00:00,
2013-03-12 19:33:00,32.0,29.0,-100.00,SSW,198,5.0,8.0,91,-99.99,,,-99.99,,2013-03-13 01:33:00,
2013-03-12 19:43:00,32.0,29.0,-100.00,SSW,198,5.0,8.0,91,-99.99,,,-99.99,,2013-03-13 01:43:00,
2013-03-12 19:52:00,32.0,29.0,-100.00,SSW,198,5.0,8.0,91,-99.99,,,-99.99,,2013-03-13 01:52:00,
2013-03-12 20:00:00,32.0,30.0,-100.00,SSW,197,5.0,8.0,92,-99.99,,,-99.99,,2013-03-13 02:00:00,
2013-03-12 20:33:00,32.0,30.0,-100.00,SSW,197,5.0,8.0,92,-99.99,,,-99.99,,2013-03-13 02:33:00,
2013-03-12 20:43:00,32.0,30.0,-100.00,SSW,197,5.0,8.0,92,-99.99,,,-99.99,,2013-03-13 02:43:00,
2013-03-12 20:52:00,32.0,30.0,-100.00,SSW,197,5.0,8.0,92,-99.99,,,-99.99,,2013-03-13 02:52:00,
2013-03-12 21:00:00,31.0,29.0,-100.00,SSE,160,5.0,7.0,91,-99.99,,,-99.99,,2013-03-13 03:00:00,
2013-03-12 21:32:00,31.0,29.0,-100.00,SSE,160,5.0,7.0,91,-99.99,,,-99.99,,2013-03-13 03:32:00,
2013-03-12 21:42:00,31.0,29.0,-100.00,SSE,160,5.0,7.0,91,-99.99,,,-99.99,,2013-03-13 03:42:00,
2013-03-12 21:52:00,31.0,29.0,-100.00,SSE,160,5.0,7.0,91,-99.99,,,-99.99,,2013-03-13 03:52:00,
2013-03-12 22:00:00,31.0,29.0,-100.00,South,179,4.0,6.0,90,-99.99,,,-99.99,,2013-03-13 04:00:00,
2013-03-12 22:32:00,31.0,29.0,-100.00,South,179,4.0,6.0,90,-99.99,,,-99.99,,2013-03-13 04:32:00,
2013-03-12 22:43:00,31.0,29.0,-100.00,South,179,4.0,6.0,90,-99.99,,,-99.99,,2013-03-13 04:43:00,
2013-03-12 22:53:00,31.0,29.0,-100.00,South,179,4.0,6.0,90,-99.99,,,-99.99,,2013-03-13 04:53:00,
2013-03-12 23:00:00,31.0,29.0,-100.00,SSW,205,5.0,7.0,92,-99.99,,,-99.99,,2013-03-13 05:00:00,
2013-03-12 23:32:00,31.0,29.0,-100.00,SSW,205,5.0,7.0,92,-99.99,,,-99.99,,2013-03-13 05:32:00,
2013-03-12 23:42:00,31.0,29.0,-100.00,SSW,205,5.0,7.0,92,-99.99,,,-99.99,,2013-03-13 05:42:00,
2013-03-12 23:52:00,31.0,29.0,-100.00,SSW,205,5.0,7.0,92,-99.99,,,-99.99,,2013-03-13 05:52:00,